Tracking 32412 objects as of 6-Dec-2025
HD Live streaming from Space Station
objects crossing your sky now

STARLINK-31823

Track STARLINK-31823 now!
10-day predictions
STARLINK-31823 is classified as:


NORAD ID: 59794
Int'l Code: 2024-093N
Perigee: 488.4 km
Apogee: 491.9 km
Inclination: 43.0 °
Period: 94.3 minutes
Semi major axis: 6861 km
RCS: Unknown
Launch date: May 18, 2024
Source: United States (US)
Launch site: AIR FORCE EASTERN TEST RANGE (AFETR)
Your satellite tracking list
Your tracking list is empty




NASA's NSSDC Master Catalog

Two Line Element Set (TLE):
1 59794U 24093N   25339.12576961  .00001874  00000-0  77599-4 0  9992
2 59794  43.0026  22.8961 0002548 272.0402  88.0158 15.27584087 88233
Source of the keplerian elements: AFSPC